ASA99 KSEA-PANC

Flight info

Callsign ASA99
Flight time N/A
Altitude 34000
Route BANGR9 ARRIE FOCHE PRYCE BKA LAIRE JOH PTERS3
Aircraft B739/M-SDE2E3FGHIRWXY/LB1

Departure

Time N/A
Airport Seattle–Tacoma International Airport (KSEA)

Arrival

Time 2026-05-06 03:57
Airport Ted Stevens Anchorage International Airport (PANC)
Time Latitude Longitude Altitude Speed Heading
2026-05-06 02:31 56.95210 -135.76605 34119 ft 393 kts 296°
2026-05-06 02:32 56.96887 -135.80564 34176 ft 393 kts 295°
2026-05-06 02:32 57.00257 -135.88492 34136 ft 394 kts 296°
2026-05-06 02:33 57.03640 -135.96443 34126 ft 395 kts 296°
2026-05-06 02:33 57.04761 -135.99081 34121 ft 395 kts 296°
2026-05-06 02:34 57.10388 -136.12363 34122 ft 397 kts 295°
2026-05-06 02:34 57.13795 -136.20437 34115 ft 398 kts 295°
2026-05-06 02:35 57.17171 -136.28473 34122 ft 400 kts 296°
2026-05-06 02:35 57.20584 -136.36620 34117 ft 402 kts 296°
2026-05-06 02:36 57.24000 -136.44798 34124 ft 403 kts 296°
2026-05-06 02:36 57.27422 -136.53017 34109 ft 403 kts 296°
2026-05-06 02:37 57.30834 -136.61242 34100 ft 403 kts 296°
2026-05-06 02:37 57.34243 -136.69491 34138 ft 404 kts 297°
2026-05-06 02:38 57.37660 -136.77788 34114 ft 405 kts 297°
2026-05-06 02:38 57.41071 -136.86099 34105 ft 406 kts 297°
2026-05-06 02:39 57.44491 -136.94459 34111 ft 407 kts 296°
2026-05-06 02:39 57.47885 -137.02783 34099 ft 407 kts 296°
2026-05-06 02:40 57.51300 -137.11190 34098 ft 407 kts 296°
2026-05-06 02:40 57.54716 -137.19634 34112 ft 409 kts 297°
2026-05-06 02:41 57.58137 -137.28114 34090 ft 410 kts 297°
2026-05-06 02:41 57.61558 -137.36623 34094 ft 410 kts 297°
2026-05-06 02:42 57.64974 -137.45153 34092 ft 411 kts 297°
2026-05-06 02:42 57.68389 -137.53708 34086 ft 411 kts 297°
2026-05-06 02:43 57.71803 -137.62293 34090 ft 412 kts 298°
2026-05-06 02:43 57.75219 -137.70918 34078 ft 413 kts 298°
2026-05-06 02:44 57.78633 -137.79565 34074 ft 413 kts 298°
2026-05-06 02:44 57.81463 -137.86758 34077 ft 413 kts 298°
2026-05-06 02:45 57.84869 -137.95441 34087 ft 412 kts 298°
2026-05-06 02:45 57.88258 -138.04112 34112 ft 413 kts 298°
2026-05-06 02:46 57.91649 -138.12820 34081 ft 413 kts 298°
2026-05-06 02:46 57.95040 -138.21563 34076 ft 413 kts 298°
2026-05-06 02:47 57.98420 -138.30309 34072 ft 413 kts 298°
2026-05-06 02:47 58.01791 -138.39064 34070 ft 412 kts 298°
2026-05-06 02:48 58.05156 -138.47835 34077 ft 412 kts 298°
2026-05-06 02:48 58.08517 -138.56629 34072 ft 413 kts 298°
2026-05-06 02:49 58.11859 -138.65403 34076 ft 414 kts 298°
2026-05-06 02:49 58.15214 -138.74244 34061 ft 413 kts 298°
2026-05-06 02:50 58.18563 -138.83101 34067 ft 413 kts 298°
2026-05-06 02:50 58.21902 -138.91967 34054 ft 413 kts 298°
2026-05-06 02:51 58.25234 -139.00846 34056 ft 412 kts 298°
2026-05-06 02:51 58.28538 -139.09685 34044 ft 412 kts 298°
2026-05-06 02:52 58.31850 -139.18576 34052 ft 412 kts 298°
2026-05-06 02:52 58.35154 -139.27481 34044 ft 412 kts 298°
2026-05-06 02:53 58.38451 -139.36398 34050 ft 412 kts 297°
2026-05-06 02:53 58.41719 -139.45273 34056 ft 412 kts 298°
2026-05-06 02:54 58.45009 -139.54240 34052 ft 412 kts 298°
2026-05-06 02:54 58.48291 -139.63218 34040 ft 412 kts 297°
2026-05-06 02:55 58.51565 -139.72207 34041 ft 412 kts 297°
2026-05-06 02:55 58.54837 -139.81226 34041 ft 412 kts 297°
2026-05-06 02:56 58.58099 -139.90250 34033 ft 412 kts 297°
2026-05-06 02:56 58.61359 -139.99309 34037 ft 413 kts 297°
2026-05-06 02:57 58.64616 -140.08387 34026 ft 413 kts 297°
2026-05-06 02:57 58.67870 -140.17494 34024 ft 413 kts 297°
2026-05-06 02:58 58.71109 -140.26596 34019 ft 412 kts 297°
2026-05-06 02:58 58.74320 -140.35653 34018 ft 412 kts 297°
2026-05-06 02:59 58.77568 -140.44846 34038 ft 413 kts 297°
2026-05-06 02:59 58.80765 -140.53941 34024 ft 412 kts 296°
2026-05-06 03:00 58.83790 -140.63355 34007 ft 409 kts 294°
2026-05-06 03:00 58.86664 -140.72728 34010 ft 408 kts 294°
2026-05-06 03:01 58.89560 -140.82155 34010 ft 407 kts 294°
2026-05-06 03:01 58.92463 -140.91568 34046 ft 407 kts 294°
2026-05-06 03:02 58.95364 -141.00976 34021 ft 407 kts 294°
2026-05-06 03:02 58.98263 -141.10405 33989 ft 407 kts 294°
2026-05-06 03:03 59.01146 -141.19821 34004 ft 406 kts 294°
2026-05-06 03:03 59.04021 -141.29249 33986 ft 406 kts 294°
2026-05-06 03:04 59.06891 -141.38697 33989 ft 405 kts 294°
2026-05-06 03:04 59.09748 -141.48143 34007 ft 406 kts 294°
2026-05-06 03:05 59.12602 -141.57622 33993 ft 406 kts 294°
2026-05-06 03:05 59.15453 -141.67123 33987 ft 406 kts 294°
2026-05-06 03:06 59.18289 -141.76617 33984 ft 405 kts 294°
2026-05-06 03:06 59.21125 -141.86147 33982 ft 405 kts 293°
2026-05-06 03:07 59.23949 -141.95676 33979 ft 405 kts 293°
2026-05-06 03:07 59.26745 -142.05153 33987 ft 406 kts 294°
2026-05-06 03:08 59.29560 -142.14732 33972 ft 406 kts 294°
2026-05-06 03:08 59.32370 -142.24335 33978 ft 406 kts 294°
2026-05-06 03:09 59.35193 -142.34020 33975 ft 406 kts 294°
2026-05-06 03:09 59.37987 -142.43644 33967 ft 406 kts 293°
2026-05-06 03:10 59.40755 -142.53223 33980 ft 406 kts 294°
2026-05-06 03:10 59.43538 -142.62892 33965 ft 406 kts 294°
2026-05-06 03:11 59.46315 -142.72582 33961 ft 406 kts 293°
2026-05-06 03:11 59.49068 -142.82229 33958 ft 406 kts 293°
2026-05-06 03:12 59.51841 -142.91987 33951 ft 406 kts 293°
2026-05-06 03:12 59.54589 -143.01698 33953 ft 406 kts 293°
2026-05-06 03:13 59.57335 -143.11428 33955 ft 407 kts 293°
2026-05-06 03:13 59.60052 -143.21121 33952 ft 406 kts 293°
2026-05-06 03:14 59.62783 -143.30899 33942 ft 406 kts 293°
2026-05-06 03:14 59.65502 -143.40675 33940 ft 406 kts 293°
2026-05-06 03:15 59.68211 -143.50456 33934 ft 405 kts 293°
2026-05-06 03:15 59.70912 -143.60248 33970 ft 405 kts 293°
2026-05-06 03:16 59.73607 -143.70063 33950 ft 405 kts 293°
2026-05-06 03:16 59.76297 -143.79902 33935 ft 406 kts 293°
2026-05-06 03:17 59.78980 -143.89755 33927 ft 406 kts 293°
2026-05-06 03:17 59.81654 -143.99622 33926 ft 406 kts 293°
2026-05-06 03:18 59.84304 -144.09441 33922 ft 406 kts 293°
2026-05-06 03:18 59.86957 -144.19315 33917 ft 406 kts 292°
2026-05-06 03:19 59.89610 -144.29234 33914 ft 406 kts 292°
2026-05-06 03:19 59.92255 -144.39161 33916 ft 406 kts 292°
2026-05-06 03:20 59.96212 -144.54102 33921 ft 406 kts 292°
2026-05-06 03:20 59.98846 -144.64103 33912 ft 407 kts 292°
2026-05-06 03:21 60.01470 -144.74109 33934 ft 407 kts 292°
2026-05-06 03:21 60.04094 -144.84161 33919 ft 407 kts 292°
2026-05-06 03:22 60.06707 -144.94215 33913 ft 407 kts 292°
2026-05-06 03:22 60.09313 -145.04284 33911 ft 407 kts 292°
2026-05-06 03:23 60.11907 -145.14357 33904 ft 407 kts 292°
2026-05-06 03:23 60.14496 -145.24454 33911 ft 406 kts 292°
2026-05-06 03:24 60.17056 -145.34483 33921 ft 407 kts 292°
2026-05-06 03:24 60.19631 -145.44622 33920 ft 407 kts 292°
2026-05-06 03:25 60.22201 -145.54784 33915 ft 408 kts 292°
2026-05-06 03:25 60.24764 -145.64968 33915 ft 408 kts 292°
2026-05-06 03:26 60.27321 -145.75168 33916 ft 408 kts 292°
2026-05-06 03:26 60.29871 -145.85394 33898 ft 408 kts 292°
2026-05-06 03:27 60.32415 -145.95641 33909 ft 409 kts 292°
2026-05-06 03:27 60.34958 -146.05934 33903 ft 410 kts 292°
2026-05-06 03:28 60.37498 -146.16258 33903 ft 410 kts 292°
2026-05-06 03:28 60.40032 -146.26610 33894 ft 411 kts 292°
2026-05-06 03:29 60.42561 -146.36990 33902 ft 412 kts 291°
2026-05-06 03:29 60.45085 -146.47396 33923 ft 412 kts 292°
2026-05-06 03:30 60.47587 -146.57760 33913 ft 412 kts 292°
2026-05-06 03:30 60.50710 -146.67602 33912 ft 419 kts 303°
2026-05-06 03:31 60.54304 -146.76947 33906 ft 420 kts 303°
2026-05-06 03:31 60.57835 -146.86379 33895 ft 419 kts 302°
2026-05-06 03:32 60.61316 -146.95912 33900 ft 419 kts 302°
2026-05-06 03:32 60.64786 -147.05477 33909 ft 416 kts 302°
2026-05-06 03:33 60.66477 -147.10215 33588 ft 412 kts 301°
2026-05-06 03:33 60.68133 -147.14909 33223 ft 405 kts 301°
2026-05-06 03:33 60.69218 -147.17999 32939 ft 402 kts 301°
2026-05-06 03:33 60.70833 -147.22610 32496 ft 398 kts 301°
2026-05-06 03:34 60.72431 -147.27182 32054 ft 393 kts 301°
2026-05-06 03:34 60.74015 -147.31715 31616 ft 390 kts 301°
2026-05-06 03:34 60.75579 -147.36198 31187 ft 386 kts 301°
2026-05-06 03:34 60.77133 -147.40656 30764 ft 382 kts 301°
2026-05-06 03:35 60.78667 -147.45067 30341 ft 378 kts 301°
2026-05-06 03:35 60.80184 -147.49432 29918 ft 375 kts 301°
2026-05-06 03:35 60.81690 -147.53776 29442 ft 371 kts 301°
2026-05-06 03:35 60.83177 -147.58067 29004 ft 367 kts 301°
2026-05-06 03:36 60.84641 -147.62305 28587 ft 362 kts 301°
2026-05-06 03:36 60.86083 -147.66486 28174 ft 357 kts 301°
2026-05-06 03:36 60.87509 -147.70632 27767 ft 353 kts 301°
2026-05-06 03:36 60.88915 -147.74723 27358 ft 349 kts 301°
2026-05-06 03:37 60.90311 -147.78794 26947 ft 346 kts 301°
2026-05-06 03:37 60.91684 -147.82806 26567 ft 342 kts 301°
2026-05-06 03:37 60.93045 -147.86785 26157 ft 339 kts 301°
2026-05-06 03:37 60.94389 -147.90726 25766 ft 336 kts 301°
2026-05-06 03:38 60.95724 -147.94647 25394 ft 334 kts 301°
2026-05-06 03:38 60.97036 -147.98506 25020 ft 332 kts 301°
2026-05-06 03:38 60.98356 -148.02396 24638 ft 331 kts 301°
2026-05-06 03:38 60.99668 -148.06268 24264 ft 329 kts 302°
2026-05-06 03:39 61.00970 -148.10118 23893 ft 327 kts 302°
2026-05-06 03:39 61.02266 -148.13953 23526 ft 325 kts 302°
2026-05-06 03:39 61.03555 -148.17774 23094 ft 323 kts 302°
2026-05-06 03:39 61.04832 -148.21563 22714 ft 320 kts 302°
2026-05-06 03:40 61.06093 -148.25314 22339 ft 316 kts 302°
2026-05-06 03:40 61.07340 -148.29031 21957 ft 313 kts 302°
2026-05-06 03:40 61.08574 -148.32714 21596 ft 310 kts 302°
2026-05-06 03:40 61.09797 -148.36368 21234 ft 308 kts 302°
2026-05-06 03:41 61.11010 -148.39978 20901 ft 304 kts 302°
2026-05-06 03:41 61.12206 -148.43559 20547 ft 302 kts 302°
2026-05-06 03:41 61.13392 -148.47133 20196 ft 301 kts 302°
2026-05-06 03:41 61.14454 -148.50834 19808 ft 297 kts 291°
2026-05-06 03:42 61.15175 -148.54813 19477 ft 294 kts 287°
2026-05-06 03:42 61.15843 -148.58803 19143 ft 293 kts 287°
2026-05-06 03:42 61.16509 -148.62772 18809 ft 292 kts 288°
2026-05-06 03:42 61.17182 -148.66737 18465 ft 291 kts 288°
2026-05-06 03:43 61.17859 -148.70685 18206 ft 287 kts 288°
2026-05-06 03:43 61.18529 -148.74557 17922 ft 285 kts 288°
2026-05-06 03:43 61.19201 -148.78430 17598 ft 287 kts 288°
2026-05-06 03:43 61.19884 -148.82363 17241 ft 294 kts 288°
2026-05-06 03:44 61.20587 -148.86416 16899 ft 302 kts 288°
2026-05-06 03:44 61.21299 -148.90521 16525 ft 302 kts 287°
2026-05-06 03:44 61.22007 -148.94598 16165 ft 300 kts 288°
2026-05-06 03:44 61.22710 -148.98653 15829 ft 297 kts 288°
2026-05-06 03:45 61.23405 -149.02681 15467 ft 295 kts 287°
2026-05-06 03:45 61.24086 -149.06634 15117 ft 294 kts 288°
2026-05-06 03:45 61.24637 -149.10698 14807 ft 292 kts 277°
2026-05-06 03:45 61.24901 -149.14877 14490 ft 292 kts 274°
2026-05-06 03:46 61.25108 -149.19075 14152 ft 293 kts 274°
2026-05-06 03:46 61.25321 -149.23294 13864 ft 295 kts 275°
2026-05-06 03:46 61.25551 -149.27549 13517 ft 298 kts 275°
2026-05-06 03:46 61.25797 -149.31840 13167 ft 299 kts 275°
2026-05-06 03:47 61.26047 -149.36106 12806 ft 296 kts 275°
2026-05-06 03:47 61.26297 -149.40336 12468 ft 293 kts 275°
2026-05-06 03:47 61.26543 -149.44506 12170 ft 289 kts 275°
2026-05-06 03:47 61.26781 -149.48631 11842 ft 286 kts 275°
2026-05-06 03:48 61.27016 -149.52721 11540 ft 283 kts 275°
2026-05-06 03:48 61.27249 -149.56772 11231 ft 281 kts 275°
2026-05-06 03:48 61.27478 -149.60796 10928 ft 280 kts 275°
2026-05-06 03:48 61.27703 -149.64786 10614 ft 276 kts 275°
2026-05-06 03:49 61.27926 -149.68737 10324 ft 275 kts 275°
2026-05-06 03:49 61.28375 -149.72614 10010 ft 282 kts 296°
2026-05-06 03:49 61.29381 -149.76059 9734 ft 283 kts 301°
2026-05-06 03:49 61.30434 -149.79526 9386 ft 282 kts 301°
2026-05-06 03:50 61.31466 -149.82981 9053 ft 280 kts 300°
2026-05-06 03:50 61.32480 -149.86429 8743 ft 278 kts 300°
2026-05-06 03:50 61.33476 -149.89834 8428 ft 272 kts 300°
2026-05-06 03:50 61.34445 -149.93144 8149 ft 263 kts 302°
2026-05-06 03:51 61.35713 -149.95789 7757 ft 260 kts 332°
2026-05-06 03:51 61.37400 -149.97080 7363 ft 258 kts 344°
2026-05-06 03:51 61.39134 -149.98142 6867 ft 260 kts 336°
2026-05-06 03:51 61.40499 -150.00531 6382 ft 259 kts 300°
2026-05-06 03:52 61.41019 -150.04055 5915 ft 255 kts 269°
2026-05-06 03:52 61.40633 -150.07600 5429 ft 251 kts 236°
2026-05-06 03:52 61.39359 -150.09936 4981 ft 246 kts 200°
2026-05-06 03:52 61.37716 -150.10323 4767 ft 230 kts 176°
2026-05-06 03:53 61.36112 -150.10003 4211 ft 231 kts 172°
2026-05-06 03:53 61.34551 -150.09506 3790 ft 223 kts 168°
2026-05-06 03:53 61.33058 -150.08786 3387 ft 216 kts 165°
2026-05-06 03:53 61.31624 -150.07984 2961 ft 211 kts 164°
2026-05-06 03:54 61.30238 -150.07201 2539 ft 201 kts 164°
2026-05-06 03:54 61.28942 -150.06475 2205 ft 184 kts 164°
2026-05-06 03:54 61.27774 -150.05822 1932 ft 164 kts 164°
2026-05-06 03:54 61.26733 -150.05239 1688 ft 146 kts 164°
2026-05-06 03:55 61.25768 -150.04698 1495 ft 144 kts 165°
2026-05-06 03:55 61.24805 -150.04159 1268 ft 142 kts 164°
2026-05-06 03:55 61.23872 -150.03637 1065 ft 140 kts 165°
2026-05-06 03:55 61.22932 -150.03111 851 ft 140 kts 164°
2026-05-06 03:56 61.21999 -150.02589 648 ft 138 kts 164°
2026-05-06 03:56 61.21079 -150.02079 469 ft 136 kts 165°
2026-05-06 03:56 61.20162 -150.01559 238 ft 138 kts 163°
2026-05-06 03:56 61.19271 -150.01059 147 ft 122 kts 164°
2026-05-06 03:57 61.18556 -150.00662 129 ft 89 kts 165°
2026-05-06 03:57 61.18171 -150.00441 123 ft 39 kts 163°
2026-05-06 03:57 61.17952 -150.00284 118 ft 31 kts 152°
2026-05-06 03:57 61.17811 -150.00053 116 ft 19 kts 127°
2026-05-06 03:58 61.17849 -149.99911 114 ft 10 kts 359°
2026-05-06 03:58 61.17917 -149.99949 113 ft 0 kts 346°
2026-05-06 03:58 61.17921 -149.99949 114 ft 3 kts 356°
2026-05-06 03:58 61.17944 -149.99944 112 ft 1 kts
2026-05-06 03:59 61.17946 -149.99958 112 ft 2 kts 285°
2026-05-06 03:59 61.17931 -149.99960 112 ft 6 kts 165°
2026-05-06 03:59 61.17842 -149.99907 112 ft 15 kts 165°
2026-05-06 03:59 61.17741 -149.99850 113 ft 15 kts 165°
2026-05-06 04:00 61.17666 -149.99732 114 ft 15 kts 99°
2026-05-06 04:00 61.17694 -149.99489 110 ft 19 kts 71°
2026-05-06 04:00 61.17732 -149.99211 104 ft 21 kts 105°
2026-05-06 04:00 61.17667 -149.98976 102 ft 20 kts 76°
2026-05-06 04:01 61.17708 -149.98744 105 ft 16 kts 71°
2026-05-06 04:01 61.17723 -149.98531 107 ft 12 kts 103°
2026-05-06 04:01 61.17685 -149.98457 108 ft 3 kts 149°
2026-05-06 04:01 61.17682 -149.98454 108 ft 0 kts 150°